Change the Weather History Date:

Sunday, May 5, 2013

  Actual Average (KMVN) Record (KMVN)
Temperature  
Mean Temperature 52 °F -  
Max Temperature 57 °F 71 °F 87 °F (2012)
Min Temperature 46 °F 51 °F 33 °F (2011)
Degree Days  
Heating Degree Days 14    
Growing Degree Days 2 (Base 50)    
Moisture  
Dew Point 51 °F    
Average Humidity 92    
Maximum Humidity 94    
Minimum Humidity 88    
Precipitation  
Precipitation 0.39 in - - ()
Sea Level Pressure  
Sea Level Pressure 29.90 in    
Wind  
Wind Speed 5 mph (NE)    
Max Wind Speed 13 mph    
Max Gust Speed 20 mph    
Visibility 9 miles    
Events Rain    
Averages and records for this station are not official NWS values.
T = Trace of Precipitation, MM = Missing Value Source: NWS Daily Summary

Daily Weather History Graph

Daily Weather History Graph

Search for Another Location

Airport or City:

Trip Planner

Search our weather history database for the weather conditions in past years. The results will help you decide how hot, cold, wet, or windy it might be!

Date:

Astronomy

May. 05, 2013 Rise Set
Actual Time 5:51 AM CDT 7:49 PM CDT
Civil Twilight 5:23 AM CDT 8:18 PM CDT
Nautical Twilight 4:48 AM CDT 8:53 PM CDT
Astronomical Twilight 4:10 AM CDT 9:31 PM CDT
Moon 3:18 AM CDT (5/5) 3:51 PM CDT (5/5)
Length of Visible Light 14h 55m
Length of Day
13h 57m
Waning Crescent, 18% of the Moon is Illuminated
May 5
Waning Crescent
May 9
New
May 17
First Quarter
May 24
Full
May 31
Last Quarter

Hourly Weather History & Observations

Time (CDT) Temp. Dew Point Humidity Pressure Visibility Wind Dir Wind Speed Gust Speed Precip Events Conditions
12:15 AM 46.4 °F 44.6 °F 93% 29.99 in 10.0 mi Calm Calm - N/A   Overcast
12:35 AM 46.4 °F 44.6 °F 93% 29.98 in 10.0 mi Calm Calm - N/A   Overcast
12:55 AM 46.4 °F 44.6 °F 93% 29.98 in 10.0 mi Calm Calm - N/A   Overcast
1:15 AM 46.4 °F 44.6 °F 93% 29.98 in 7.0 mi Calm Calm - N/A   Overcast
1:35 AM 46.4 °F 44.6 °F 93% 29.96 in 2.0 mi Calm Calm - 0.01 in Rain Rain
1:55 AM 46.4 °F 44.6 °F 93% 29.95 in 5.0 mi Calm Calm - 0.01 in Rain Light Rain
2:15 AM 46.4 °F 44.6 °F 93% 29.95 in 10.0 mi Calm Calm - N/A   Overcast
2:35 AM 46.4 °F 44.6 °F 93% 29.95 in 7.0 mi Calm Calm - N/A   Overcast
2:55 AM 46.4 °F 44.6 °F 93% 29.94 in 3.0 mi Calm Calm - 0.01 in   Heavy Drizzle
3:15 AM 46.4 °F 44.6 °F 93% 29.93 in 5.0 mi Calm Calm - N/A   Light Drizzle
3:35 AM 48.2 °F 46.4 °F 93% 29.93 in 7.0 mi Calm Calm - 0.01 in Rain Light Rain
3:55 AM 48.2 °F 46.4 °F 93% 29.92 in 7.0 mi NW 3.5 mph - 0.02 in Rain Rain
4:15 AM 48.2 °F 46.4 °F 93% 29.92 in 5.0 mi Calm Calm - N/A Rain Light Rain
4:35 AM 48.2 °F 46.4 °F 93% 29.91 in 5.0 mi NNW 3.5 mph - 0.01 in Rain Rain
4:55 AM 48.2 °F 46.4 °F 93% 29.91 in 4.0 mi North 5.8 mph - 0.02 in Rain Rain
5:15 AM 50.0 °F 48.2 °F 94% 29.90 in 5.0 mi North 6.9 mph - 0.02 in Rain Rain
5:35 AM 51.8 °F 48.2 °F 88% 29.90 in 5.0 mi NNE 5.8 mph - N/A   Drizzle
6:15 AM 51.8 °F 50.0 °F 94% 29.91 in 7.0 mi NNE 6.9 mph - 0.01 in Rain Light Rain
6:35 AM 51.8 °F 50.0 °F 94% 29.91 in 5.0 mi NNE 5.8 mph - 0.02 in Rain Rain
6:55 AM 53.6 °F 51.8 °F 94% 29.91 in 7.0 mi NNE 9.2 mph - 0.05 in Rain Rain
7:15 AM 53.6 °F 51.8 °F 94% 29.90 in 10.0 mi NNE 10.4 mph - 0.02 in Rain Light Rain
7:35 AM 53.6 °F 51.8 °F 94% 29.90 in 10.0 mi NNE 8.1 mph - 0.03 in Rain Rain
7:55 AM 53.6 °F 51.8 °F 94% 29.90 in 10.0 mi NNE 9.2 mph - 0.05 in Rain Rain
8:15 AM 53.6 °F 51.8 °F 94% 29.90 in 10.0 mi NNE 10.4 mph - 0.02 in Rain Light Rain
8:35 AM 53.6 °F 51.8 °F 94% 29.90 in 10.0 mi North 11.5 mph 19.6 mph 0.03 in Rain Light Rain
8:55 AM 53.6 °F 51.8 °F 94% 29.90 in 10.0 mi NNE 10.4 mph 19.6 mph 0.04 in Rain Light Rain
9:15 AM 55.4 °F 51.8 °F 88% 29.90 in 10.0 mi NNE 10.4 mph - 0.01 in Rain Light Rain
9:35 AM 53.6 °F 51.8 °F 94% 29.90 in 7.0 mi NNE 11.5 mph - 0.03 in Rain Heavy Rain
9:55 AM 53.6 °F 51.8 °F 94% 29.89 in 10.0 mi NNE 9.2 mph - 0.08 in Rain Rain
10:15 AM 55.4 °F 53.6 °F 94% 29.89 in 10.0 mi NNE 10.4 mph 16.1 mph N/A   Overcast
10:35 AM 55.4 °F 53.6 °F 94% 29.89 in 10.0 mi North 11.5 mph 17.3 mph N/A   Overcast
10:55 AM 55.4 °F 53.6 °F 94% 29.89 in 10.0 mi NNE 12.7 mph 18.4 mph N/A   Overcast
11:15 AM 55.4 °F 53.6 °F 94% 29.90 in 10.0 mi NNE 10.4 mph - N/A   Overcast
11:35 AM 55.4 °F 53.6 °F 94% 29.89 in 10.0 mi NNE 11.5 mph - N/A   Overcast
11:55 AM 57.2 °F 53.6 °F 88% 29.89 in 10.0 mi NE 9.2 mph - N/A   Overcast
12:15 PM 55.4 °F 53.6 °F 94% 29.89 in 4.0 mi East 5.8 mph - 0.08 in Rain Heavy Rain
12:35 PM 55.4 °F 53.6 °F 94% 29.88 in 5.0 mi ENE 8.1 mph - 0.09 in Rain Light Rain
12:55 PM 55.4 °F 53.6 °F 94% 29.88 in 7.0 mi ENE 10.4 mph - N/A   Mostly Cloudy
1:15 PM 55.4 °F 53.6 °F 94% 29.88 in 10.0 mi ENE 8.1 mph - N/A   Mostly Cloudy
1:35 PM 57.2 °F 53.6 °F 88% 29.88 in 10.0 mi ENE 5.8 mph - N/A   Overcast
1:55 PM 57.2 °F 53.6 °F 88% 29.88 in 10.0 mi ENE 8.1 mph - N/A   Mostly Cloudy
2:15 PM 57.2 °F 53.6 °F 88% 29.88 in 10.0 mi NE 8.1 mph - N/A   Overcast
2:35 PM 57.2 °F 53.6 °F 88% 29.88 in 10.0 mi ENE 4.6 mph - N/A   Overcast
2:55 PM 57.2 °F 53.6 °F 88% 29.87 in 10.0 mi ENE 8.1 mph - N/A   Overcast
3:15 PM 57.2 °F 53.6 °F 88% 29.87 in 10.0 mi East 6.9 mph - N/A   Overcast
3:35 PM 57.2 °F 53.6 °F 88% 29.87 in 10.0 mi East 4.6 mph - N/A   Overcast
3:55 PM 57.2 °F 53.6 °F 88% 29.87 in 10.0 mi East 5.8 mph - N/A   Overcast
4:15 PM 57.2 °F 53.6 °F 88% 29.87 in 3.0 mi East 10.4 mph - N/A Rain Rain
4:35 PM 55.4 °F 53.6 °F 94% 29.87 in 10.0 mi East 5.8 mph - N/A   Overcast
4:55 PM 57.2 °F 53.6 °F 88% 29.87 in 10.0 mi NE 8.1 mph - N/A   Overcast
5:15 PM 57.2 °F 53.6 °F 88% 29.87 in 10.0 mi NE 8.1 mph - N/A   Overcast
5:35 PM 57.2 °F 53.6 °F 88% 29.87 in 10.0 mi NE 11.5 mph - N/A   Overcast
5:55 PM 57.2 °F 53.6 °F 88% 29.87 in 10.0 mi NE 9.2 mph - N/A   Overcast
6:15 PM 57.2 °F 53.6 °F 88% 29.87 in 10.0 mi ENE 11.5 mph - N/A   Overcast
6:35 PM 57.2 °F 53.6 °F 88% 29.88 in 10.0 mi NE 10.4 mph - N/A   Overcast
6:55 PM 55.4 °F 53.6 °F 94% 29.88 in 10.0 mi ENE 9.2 mph - N/A   Overcast
7:15 PM 55.4 °F 51.8 °F 88% 29.89 in 10.0 mi NE 8.1 mph - N/A   Mostly Cloudy
7:35 PM 55.4 °F 51.8 °F 88% 29.89 in 10.0 mi NE 9.2 mph - N/A   Mostly Cloudy
7:55 PM 55.4 °F 51.8 °F 88% 29.89 in 10.0 mi NE 10.4 mph - N/A   Scattered Clouds
8:15 PM 55.4 °F 51.8 °F 88% 29.90 in 10.0 mi NE 9.2 mph - N/A   Scattered Clouds
8:35 PM 55.4 °F 51.8 °F 88% 29.90 in 10.0 mi NE 6.9 mph - N/A   Mostly Cloudy
8:55 PM 55.4 °F 51.8 °F 88% 29.90 in 10.0 mi NE 8.1 mph - N/A   Overcast
9:35 PM 53.6 °F 51.8 °F 94% 29.91 in 10.0 mi NE 6.9 mph - N/A   Overcast
9:55 PM 53.6 °F 51.8 °F 94% 29.91 in 10.0 mi NNE 8.1 mph - N/A   Overcast
10:15 PM 53.6 °F 51.8 °F 94% 29.91 in 10.0 mi NE 5.8 mph - N/A   Overcast
10:35 PM 53.6 °F 51.8 °F 94% 29.91 in 10.0 mi NE 8.1 mph - N/A   Overcast
10:55 PM 53.6 °F 51.8 °F 94% 29.91 in 10.0 mi NE 6.9 mph - N/A   Overcast
11:15 PM 53.6 °F 51.8 °F 94% 29.90 in 10.0 mi NE 8.1 mph - N/A   Overcast
11:35 PM 53.6 °F 51.8 °F 94% 29.90 in 10.0 mi NE 8.1 mph - N/A   Overcast
11:55 PM 53.6 °F 51.8 °F 94% 29.90 in 10.0 mi NNE 8.1 mph - N/A   Overcast